Telluride, CO

10:37 AM MDT on June 19, 2018 (GMT -0600)
Telluride Regional

Weather History for KTEX - October, 2017

Change the Weather History Date:

Monday, October 2, 2017

  Actual Average Record
Temperature  
Mean Temperature 43 °F -  
Max Temperature 50 °F 56 °F 73 °F (2010)
Min Temperature 36 °F 36 °F 32 °F (2004)
Degree Days  
Heating Degree Days 22    
Moisture  
Dew Point 32 °F    
Average Humidity 68    
Maximum Humidity 100    
Minimum Humidity 36    
Precipitation  
Precipitation 0.18 in - - ()
Sea Level Pressure  
Sea Level Pressure 29.97 in    
Wind  
Wind Speed 5 mph (South)    
Max Wind Speed 22 mph    
Max Gust Speed 41 mph    
Visibility 8 miles    
Events Fog , Rain    
Averages and records for this station are not official NWS values.
T = Trace of Precipitation, MM = Missing Value Source: NWS Daily Summary

Daily Weather History Graph

Daily Weather History Graph

Search for Another Location

Airport or City:

Astronomy

Oct. 02, 2017 Rise Set
Actual Time 7:08 AM MDT 6:52 PM MDT
Civil Twilight 6:42 AM MDT 7:18 PM MDT
Nautical Twilight 6:11 AM MDT 7:49 PM MDT
Astronomical Twilight 5:41 AM MDT 8:19 PM MDT
Moon 5:27 PM MDT (10/2) 3:44 AM MDT (10/2)
Length of Visible Light 12h 36m
Length of Day
11h 44m
Waxing Gibbous, 89% of the Moon is Illuminated
Oct 2
Waxing Gibbous
Oct 5
Full
Oct 12
Last Quarter
Oct 19
New
Oct 27
First Quarter

Hourly Weather History & Observations

Time (MDT) Temp. Windchill Dew Point Humidity Pressure Visibility Wind Dir Wind Speed Gust Speed Precip Events Conditions
12:15 AM 45.7 °F - 32.4 °F 60% 29.94 in 10.0 mi Calm Calm - N/A   Overcast
12:35 AM 46.6 °F - 31.5 °F 56% 29.94 in 10.0 mi Calm Calm - N/A   Overcast
12:55 AM 45.1 °F - 32.0 °F 60% 29.93 in 10.0 mi Calm Calm - N/A   Overcast
1:15 AM 46.4 °F - 30.6 °F 54% 29.93 in 10.0 mi Calm Calm - N/A   Overcast
1:35 AM 46.8 °F - 31.1 °F 55% 29.93 in 10.0 mi Calm Calm - N/A   Overcast
1:55 AM 46.4 °F - 30.6 °F 54% 29.93 in 10.0 mi Calm Calm - N/A   Overcast
2:35 AM 48.6 °F - 27.7 °F 44% 29.93 in 10.0 mi Calm Calm - N/A   Overcast
2:55 AM 49.1 °F - 27.1 °F 43% 29.92 in 10.0 mi SSW 4.6 mph - N/A   Overcast
3:15 AM 49.1 °F - 27.3 °F 43% 29.91 in 10.0 mi South 4.6 mph - N/A   Overcast
3:35 AM 49.1 °F - 27.0 °F 42% 29.90 in 10.0 mi SSE 6.9 mph - N/A   Overcast
3:55 AM 48.7 °F - 26.8 °F 43% 29.90 in 10.0 mi SSW 8.1 mph - N/A   Overcast
4:15 AM 48.6 °F - 26.2 °F 42% 29.90 in 10.0 mi South 4.6 mph - N/A   Overcast
4:35 AM 48.4 °F - 26.2 °F 42% 29.90 in 10.0 mi South 6.9 mph - N/A   Overcast
4:55 AM 48.6 °F - 25.7 °F 41% 29.90 in 10.0 mi SW 4.6 mph 16.1 mph N/A   Overcast
5:15 AM 48.2 °F - 25.9 °F 42% 29.91 in 10.0 mi SSW 5.8 mph 18.4 mph N/A   Overcast
5:35 AM 48.2 °F - 25.9 °F 42% 29.90 in 10.0 mi SSW 17.3 mph 25.3 mph N/A   Overcast
5:55 AM 47.8 °F - 25.7 °F 42% 29.91 in 10.0 mi SSW 9.2 mph - N/A   Overcast
6:15 AM 48.0 °F - 25.9 °F 42% 29.91 in 10.0 mi South 8.1 mph 19.6 mph N/A   Overcast
6:35 AM 48.0 °F - 26.1 °F 42% 29.92 in 10.0 mi SSW 6.9 mph - N/A   Overcast
6:55 AM 47.7 °F - 26.4 °F 44% 29.92 in 10.0 mi South 5.8 mph 16.1 mph N/A   Overcast
7:15 AM 47.7 °F - 26.4 °F 44% 29.92 in 10.0 mi SSW 13.8 mph 20.7 mph N/A   Overcast
7:35 AM 47.3 °F - 26.4 °F 44% 29.92 in 10.0 mi SSW 9.2 mph 19.6 mph N/A   Overcast
7:55 AM 46.9 °F - 27.1 °F 46% 29.92 in 10.0 mi South 13.8 mph 20.7 mph N/A   Overcast
8:15 AM 47.1 °F - 27.5 °F 47% 29.92 in 10.0 mi South 11.5 mph 19.6 mph N/A   Overcast
8:35 AM 47.3 °F - 27.7 °F 47% 29.92 in 10.0 mi SE 11.5 mph 20.7 mph N/A   Overcast
8:55 AM 48.2 °F - 27.3 °F 44% 29.92 in 10.0 mi South 8.1 mph 25.3 mph N/A   Overcast
9:35 AM 50.2 °F - 27.5 °F 42% 29.91 in 10.0 mi South 16.1 mph 21.9 mph N/A   Overcast
9:55 AM 49.5 °F - 27.5 °F 43% 29.91 in 10.0 mi South 18.4 mph 27.6 mph N/A   Overcast
10:15 AM 49.5 °F - 27.9 °F 43% 29.91 in 10.0 mi South 11.5 mph 20.7 mph N/A   Overcast
10:35 AM 49.8 °F - 26.2 °F 40% 29.91 in 10.0 mi SW 8.1 mph 17.3 mph N/A   Overcast
10:55 AM 50.2 °F - 24.1 °F 36% 29.90 in 10.0 mi SSW 11.5 mph 34.5 mph N/A   Overcast
11:15 AM 50.5 °F - 24.1 °F 36% 29.90 in 10.0 mi South 21.9 mph 31.1 mph N/A   Overcast
11:35 AM 49.6 °F - 25.2 °F 38% 29.91 in 10.0 mi South 17.3 mph 41.4 mph N/A   Overcast
11:55 AM 48.7 °F - 28.0 °F 45% 29.93 in 10.0 mi South 20.7 mph 35.7 mph N/A Rain Light Rain
12:15 PM 45.3 °F 39.3 °F 31.8 °F 59% 29.95 in 10.0 mi South 12.7 mph 39.1 mph N/A Rain Rain
12:35 PM 47.7 °F - 31.1 °F 53% 29.95 in 10.0 mi South 12.7 mph 18.4 mph N/A   Overcast
12:55 PM 44.6 °F 40.2 °F 33.8 °F 66% 29.95 in 10.0 mi SSE 8.1 mph - N/A   Light Drizzle
1:15 PM 44.2 °F 42.7 °F 33.6 °F 66% 29.95 in 10.0 mi South 3.5 mph - N/A Rain Rain
1:35 PM 45.0 °F 41.8 °F 35.2 °F 69% 29.95 in 10.0 mi SE 5.8 mph - N/A   Overcast
1:55 PM 45.0 °F 41.2 °F 35.4 °F 69% 29.93 in 10.0 mi SE 6.9 mph - N/A   Overcast
2:35 PM 43.3 °F 35.0 °F 34.9 °F 72% 29.96 in 7.0 mi WSW 19.6 mph 34.5 mph N/A Rain Light Rain
2:55 PM 40.1 °F 35.3 °F 36.3 °F 86% 29.97 in 5.0 mi West 6.9 mph 20.7 mph 0.02 in Rain Light Rain
3:15 PM 39.6 °F 31.7 °F 35.8 °F 86% 29.97 in 2.0 mi WSW 13.8 mph 34.5 mph 0.02 in Rain Rain
3:35 PM 39.4 °F 30.7 °F 36.3 °F 89% 29.97 in 5.0 mi West 16.1 mph 24.2 mph 0.03 in Rain Light Rain
3:55 PM 37.4 °F 30.3 °F 35.8 °F 94% 29.97 in 1.8 mi WNW 10.4 mph 26.5 mph 0.05 in Rain Rain
4:15 PM 37.6 °F 32.3 °F 36.1 °F 95% 29.99 in 2.0 mi WNW 6.9 mph - 0.02 in Rain Rain
4:35 PM 37.6 °F 32.3 °F 36.5 °F 96% 29.99 in 2.5 mi WNW 6.9 mph - 0.04 in Rain Rain
4:55 PM 38.3 °F 33.9 °F 36.7 °F 94% 30.01 in 4.0 mi NW 5.8 mph - 0.06 in Rain Rain
5:15 PM 38.5 °F - 37.4 °F 96% 29.99 in 10.0 mi Calm Calm - 0.01 in Rain Light Rain
5:35 PM 39.2 °F - 37.8 °F 95% 30.01 in 7.0 mi Calm Calm - 0.01 in Rain Rain
5:55 PM 39.2 °F 37.0 °F 38.3 °F 97% 30.01 in 10.0 mi ESE 3.5 mph - 0.02 in Rain Light Rain
6:15 PM 39.4 °F 37.2 °F 38.5 °F 97% 30.02 in 10.0 mi West 3.5 mph - N/A Rain Light Rain
6:35 PM 37.6 °F - 37.0 °F 98% 30.03 in 5.0 mi Calm Calm - 0.02 in Rain Light Rain
6:55 PM 38.5 °F - 38.3 °F 99% 30.03 in 7.0 mi Calm Calm - 0.03 in Rain Rain
7:15 PM 40.3 °F - 36.9 °F 88% 30.03 in 10.0 mi Calm Calm - N/A Rain Light Rain
7:35 PM 39.6 °F 34.7 °F 37.8 °F 93% 30.03 in 10.0 mi ESE 6.9 mph - N/A   Overcast
7:55 PM 39.2 °F - 37.0 °F 92% 30.04 in 10.0 mi Calm Calm - N/A   Overcast
8:15 PM 38.7 °F - 38.1 °F 98% 30.05 in 10.0 mi Calm Calm - N/A   Overcast
8:35 PM 38.1 °F - 38.1 °F 100% 30.06 in 2.5 mi Calm Calm - N/A   Overcast
8:55 PM 38.7 °F - 38.5 °F 99% 30.07 in 10.0 mi Calm Calm - N/A   Mostly Cloudy
9:15 PM 37.4 °F - 37.2 °F 99% 30.07 in 0.2 mi Calm Calm - N/A Fog Fog
9:35 PM 37.8 °F 32.5 °F 37.8 °F 100% 30.09 in 1.2 mi South 6.9 mph - N/A   Mostly Cloudy
9:55 PM 38.1 °F 32.9 °F 37.8 °F 99% 30.09 in 3.0 mi SSW 6.9 mph - N/A   Mostly Cloudy
10:15 PM 38.5 °F 36.1 °F 37.8 °F 97% 30.10 in 10.0 mi SE 3.5 mph - N/A   Mostly Cloudy
10:35 PM 38.7 °F - 37.4 °F 95% 30.10 in 10.0 mi Calm Calm - N/A   Mostly Cloudy
10:55 PM 37.6 °F - 37.6 °F 100% 30.10 in 10.0 mi Calm Calm - N/A   Scattered Clouds
11:15 PM 37.4 °F 32.8 °F 37.4 °F 100% 30.12 in 1.5 mi SSE 5.8 mph - N/A   Mostly Cloudy
11:35 PM 36.5 °F 33.9 °F 36.5 °F 100% 30.12 in 0.2 mi East 3.5 mph - N/A Fog Fog
11:55 PM 36.9 °F - 36.9 °F 100% 30.12 in 7.0 mi Calm Calm - N/A   Scattered Clouds